Regional Weather Roundup
Issued by NWS

Home | Current Version | Previous Version | Text Only | Print | Product List | Glossary Off
Versions: 1 2 3 4 5 6 7 8 9 10 11 12 13 14 15 16 17 18 19 20 21 22 23 24 25 26 27 28 29 30 31 32 33 34 35 36 37 38 39 40 41 42 43 44 45 46 47 48 49 50

000
ASUS43 KMKX 211659
RWRWI

WISCONSIN REGIONAL WEATHER ROUNDUP
NATIONAL WEATHER SERVICE MILWAUKEE/SULLIVAN WI
1200 PM CDT MON MAY 21 2018

NOTE: "FAIR" INDICATES FEW OR NO CLOUDS BELOW 12,000 FEET WITH NO
SIGNIFICANT WEATHER AND/OR OBSTRUCTIONS TO VISIBILITY.

WIZ001-002-006>008-014>016-023>028-211800-
NORTHWEST WISCONSIN

CITY           SKY/WX    TMP DP  RH WIND       PRES   REMARKS
SUPERIOR ARPT  FAIR      60  38  42 NE9       30.10F
ASHLAND        FAIR      70  40  33 N13       30.11F
HAYWARD        PTSUNNY   70  30  22 E9        30.11F
SIREN          CLOUDY    66  31  26 E6        30.10F
CUMBERLAND     CLOUDY    61  25  25 SE9       30.12S
RICE LAKE      CLOUDY    64  24  22 SE10      30.13F
CHETEK         CLOUDY    64  34  33 SE7       30.12S
LADYSMITH      CLOUDY    65  26  22 S7        30.14F
EAU CLAIRE     NOT AVBL
MENOMONIE      CLOUDY    60  36  41 E10       30.11S
NEW RICHMOND   CLOUDY    63  33  32 E9        30.09F
OSCEOLA        CLOUDY    65  32  29 SE9       30.11F
$$

WIZ003>005-009-010-017-018-211800-
NORTH CENTRAL WISCONSIN

CITY           SKY/WX    TMP DP  RH WIND       PRES   REMARKS
MANITOWISH WTR FAIR      69  28  21 SE12      30.13F
ARBOR VITAE    FAIR      69  17  13 S9G16     30.13F
WOODRUFF       FAIR      69  17  13 S9G16     30.13F
RHINELANDER    FAIR      69  40  34 E17       30.14F
EAGLE RIVER    FAIR      65  13  13 SE8       30.15F
LAND O LAKES   FAIR      70  14  11 SE12G18   30.15F
PHILLIPS       CLOUDY    66  21  18 SE10      30.12F
TOMAHAWK       FAIR      65  42  42 SE5       30.14F
MEDFORD        CLOUDY    58  43  56 SE9       30.13F
MERRILL        CLOUDY    64  44  47 S9        30.14F
$$

WIZ029-030-035-036-043>047-211800-
CENTRAL WISCONSIN

CITY           SKY/WX    TMP DP  RH WIND       PRES   REMARKS
WAUSAU         CLOUDY    59  44  57 SE12      30.13F
MOSINEE        CLOUDY    57  45  62 E8        30.14F
MARSHFIELD     CLOUDY    59  46  62 SE10      30.12S
STEVENS POINT  CLOUDY    57  44  60 E10       30.14F
WAUPACA        CLOUDY    60  49  66 E9        30.15S
WAUTOMA        CLOUDY    57  51  80 NE10      30.13F
WISC RAPIDS    LGT RAIN  58  48  69 E8        30.13F
CAMP DOUGLAS   NOT AVBL
$$

WIZ011>013-019>022-031-037>040-048>050-211800-
NORTHEAST WISCONSIN

CITY           SKY/WX    TMP DP  RH WIND       PRES   REMARKS
ANTIGO         CLOUDY    60  44  54 SE13      30.16F
SHAWANO        CLOUDY    62  47  57 E9        30.17S
OCONTO         FAIR      56  43  60 NE8       30.18F
STURGEON BAY   FAIR      59  49  69 E7        30.19F
GREEN BAY      PTSUNNY   61  49  64 E13       30.16F
MANITOWOC      LGT RAIN  54  48  80 E9        30.17F
APPLETON       CLOUDY    57  46  67 E9        30.14F
CLINTONVILLE   CLOUDY    61  46  58 E8        30.15F
OSHKOSH        LGT RAIN  55  53  93 E13       30.13S
$$

WIZ032>034-041-042-053>061-211800-
SOUTHWEST WISCONSIN

CITY           SKY/WX    TMP DP  RH WIND       PRES   REMARKS
LA CROSSE      LGT RAIN  54  50  86 E5        30.08F FOG
SPARTA         RAIN      51  49  95 E3        30.11S
VIROQUA        CLOUDY    51  51 100 E13       30.08S
BOSCOBEL       RAIN      54  52  93 NE3       30.08F FOG
PRAIRIE DU CHI RAIN      53  52  95 CALM      30.07S
PLATTEVILLE    CLOUDY    56  56 100 E10       30.07S
$$

WIZ056-057-062-063-064-067-068-211800-
SOUTH CENTRAL WISCONSIN

CITY           SKY/WX    TMP DP  RH WIND       PRES   REMARKS
REEDSBURG      LGT RAIN  53  53 100 E7        30.09F
BARABOO/DELLS  DRIZZLE   54  51  91 NE5       30.10F
LONE ROCK      LGT RAIN  55  55 100 E9        30.08F FOG
MINERAL POINT  RAIN      55  55 100 E6        30.07S
MADISON        RAIN      56  55  97 E8        30.08F FOG
MIDDLETON      CLOUDY    56  55  94 E7        30.10S
WATERTOWN      CLOUDY    55  55 100 E12       30.10F
MONROE         RAIN      54  54 100 E5        30.07S
JANESVILLE     CLOUDY    61  61 100 SE14      30.08F
$$

WIZ051-052-058>065-066-070>072-211800-
SOUTHEAST WISCONSIN

CITY           SKY/WX    TMP DP  RH WIND       PRES   REMARKS
MILWAUKEE      LGT RAIN  54  53  97 SE10      30.14R VSB 3/4
WAUKESHA       CLOUDY    52  52 100 E7        30.14S FOG
MILWAUKEE/TIMM RAIN      52  48  87 SE7       30.14S FOG
RACINE         RAIN      52  52 100 E10       30.15S FOG
BURLINGTON     LGT RAIN  55  54  95 E10       30.12S
KENOSHA        RAIN      55  54  96 E13       30.12F FOG
FOND DU LAC    RAIN      54  52  93 E8        30.12F
SHEBOYGAN      LGT RAIN  52  50  93 E8        30.15F FOG
WEST BEND      LGT RAIN  52  52 100 E7        30.14F
JUNEAU         RAIN      54  53  97 E9        30.12F
$$

LSZ147-162-211800-
LAKE SUPERIOR

STATION/POSITION TIME  TEMP    WIND        PRES    WAVE
                       AIR SEA DIR/SP/G            HT/PER
                 (UTC) (F)     (DEG/KT/KT) (MB)    (FT/S)
$$

LMZ867-665-643>646-211800-
LAKE MICHIGAN

STATION/POSITION TIME  TEMP    WIND        PRES    WAVE
                       AIR SEA DIR/SP/G            HT/PER
                 (UTC) (F)     (DEG/KT/KT) (MB)    (FT/S)
$$

TC  - TEMPERATURE IN CELSIUS
VSB - VISIBILITY IN STATUTE MILES
WCI - WIND CHILL INDEX
HX  - HEAT INDEX





USA.gov is the U.S. government's official web portal to all federal, state and local government web resources and services.